Time,TemperatureF,DewpointF,PressureIn,WindDirection,WindDirectionDegrees,WindSpeedMPH,WindSpeedGustMPH,Humidity,HourlyPrecipIn,Conditions,Clouds,dailyrainin,SolarRadiationWatts/m^2,SoftwareType,DateUTC
2013-03-02 07:00:00,36.0,32.0,30.18,West,280,7.0,-999.0,83,-99.99,,,-99.99,78.500000,,2013-03-02 14:00:00,
2013-03-02 07:52:00,36.0,32.0,30.18,West,280,7.0,-999.0,83,-99.99,,,-99.99,78.500000,,2013-03-02 14:52:00,
2013-03-02 08:00:00,39.0,32.0,30.19,West,277,10.0,-999.0,77,-99.99,,,-99.99,170.000000,,2013-03-02 15:00:00,
2013-03-02 08:52:00,39.0,32.0,30.19,West,277,10.0,-999.0,77,-99.99,,,-99.99,170.000000,,2013-03-02 15:52:00,
2013-03-02 09:00:00,42.0,32.0,30.20,WNW,287,12.0,-999.0,68,-99.99,,,-99.99,327.299988,,2013-03-02 16:00:00,
2013-03-02 09:52:00,42.0,32.0,30.20,WNW,287,12.0,-999.0,68,-99.99,,,-99.99,327.299988,,2013-03-02 16:52:00,
2013-03-02 10:00:00,45.0,32.0,30.19,WNW,290,15.0,-999.0,62,-99.99,,,-99.99,454.299988,,2013-03-02 17:00:00,
2013-03-02 10:52:00,45.0,32.0,30.19,WNW,290,15.0,-999.0,62,-99.99,,,-99.99,454.299988,,2013-03-02 17:52:00,
2013-03-02 11:00:00,47.0,33.0,30.19,WNW,295,16.0,-999.0,56,-99.99,,,-99.99,514.500000,,2013-03-02 18:00:00,
2013-03-02 11:52:00,47.0,33.0,30.19,WNW,295,16.0,-999.0,56,-99.99,,,-99.99,514.500000,,2013-03-02 18:52:00,
2013-03-02 12:00:00,50.0,35.0,30.18,WNW,301,16.0,-999.0,55,-99.99,,,-99.99,596.099976,,2013-03-02 19:00:00,
2013-03-02 12:52:00,50.0,35.0,30.18,WNW,301,16.0,-999.0,55,-99.99,,,-99.99,596.099976,,2013-03-02 19:52:00,
2013-03-02 13:00:00,52.0,36.0,30.16,WNW,295,15.0,-999.0,54,-99.99,,,-99.99,580.200012,,2013-03-02 20:00:00,
2013-03-02 13:53:00,52.0,36.0,30.16,WNW,295,15.0,-999.0,54,-99.99,,,-99.99,580.200012,,2013-03-02 20:53:00,
2013-03-02 14:00:00,54.0,35.0,30.14,WNW,296,13.0,-999.0,48,-99.99,,,-99.99,535.500000,,2013-03-02 21:00:00,
2013-03-02 14:52:00,54.0,35.0,30.14,WNW,296,13.0,-999.0,48,-99.99,,,-99.99,535.500000,,2013-03-02 21:52:00,
2013-03-02 15:00:00,56.0,32.0,30.12,WNW,291,11.0,-999.0,41,-99.99,,,-99.99,510.399994,,2013-03-02 22:00:00,
2013-03-02 15:52:00,56.0,32.0,30.12,WNW,291,11.0,-999.0,41,-99.99,,,-99.99,510.399994,,2013-03-02 22:52:00,
2013-03-02 16:00:00,56.0,37.0,30.11,NW,305,9.0,-999.0,49,-99.99,,,-99.99,362.299988,,2013-03-02 23:00:00,
2013-03-02 16:52:00,56.0,37.0,30.11,NW,305,9.0,-999.0,49,-99.99,,,-99.99,362.299988,,2013-03-02 23:52:00,
2013-03-02 17:00:00,54.0,40.0,30.10,NW,304,4.0,-999.0,58,-99.99,,,-99.99,179.800003,,2013-03-03 00:00:00,
2013-03-02 17:52:00,54.0,40.0,30.10,NW,304,4.0,-999.0,58,-99.99,,,-99.99,179.800003,,2013-03-03 00:52:00,